Find OneWeb SL0178

NORAD ID: 48075 Int'l Des: 2021-025 Owner: ONEWEBN Country: UK Constellation: oneweb operational
LEOCIRCULARPOLARONEWEB_TYPE

实时位置

正在加载3D地球...

关于 OneWeb SL0178

正在加载描述...

即将过境

Passes for default location (London). Set your location on the main map for personalized predictions.

高度历史

Loading altitude history...

两行轨道根数

1 48075U 21025AK 26104.35595110 -.00000254 00000-0 -73059-3 0 9996
2 48075 87.8970 332.9540 0001909 75.5965 284.5376 13.13469164245348
Epoch: Apr 14, 2026 • Age: 14 hours

当前状态

高度 1212.7 km
速度 7.25 km/s
星下点 25.90°N, 23.1°W
发射日期 Mar 25, 2021
运行时间 5 years
类型 internet

技术详情

分类 Payload
质量 148.00 kg
干质量 140.00 kg
总质量 148.00 kg
长度 1.30 m
直径 1.00 m
跨度 5.00 m
形状 Trapezoid+2 pan
制造商 ONEWUS
平台类型 ARROW
阶段状态 In Orbit
所有者/国家 ONEWEBN/UK

Most Searched